KLEMETTI Weather Reports


Display with metric or nautical units.
time (UTC)temp
F
wind
direction
speed
MPH
gust
MPH
rain 1hr
in
rain 24hr
in
rain mn
in
humidity
%
barometer
mb
20260906082459 50 353 17.0 26.0 0.00 0.04 0.00 62 1009.7
20260906074459 51 342 16.0 25.0 0.00 0.05 0.00 63 1009.4
20260906072129 50 344 14.0 26.0 0.00 0.05 0.00 67 1009.2
20260906070128 49 347 14.0 22.0 0.00 0.05 0.00 69 1008.8
20260906064457 49 345 14.0 23.0 0.00 0.05 0.00 68 1008.7
20260906062458 49 337 15.0 21.0 0.00 0.05 0.00 70 1008.3
20260906060455 49 340 15.0 22.0 0.00 0.05 0.00 69 1008.2
20260906054129 49 350 11.0 19.0 0.00 0.06 0.00 70 1007.8
20260906052459 49 347 11.0 20.0 0.00 0.06 0.00 71 1007.6
20260906050459 49 342 11.0 18.0 0.00 0.06 0.00 74 1007.4
20260906044129 48 342 12.0 17.0 0.00 0.08 0.00 76 1007.2
20260906042128 49 340 11.0 17.0 0.00 0.08 0.00 77 1006.9
20260906034128 49 341 11.0 16.0 0.00 0.08 0.00 75 1006.4
20260906030459 47 340 9.0 13.0 0.00 0.08 0.00 78 1006.2
20260906024458 47 335 11.0 14.0 0.00 0.08 0.00 76 1006.0
20260906022459 48 333 12.0 15.0 0.00 0.08 0.00 73 1005.8
20260906012128 49 341 12.0 17.0 0.00 0.08 0.00 75 1005.3
20260906010459 49 340 13.0 19.0 0.00 0.08 0.00 75 1005.1
20260906004459 49 336 12.0 17.0 0.00 0.09 0.00 74 1004.9
20260906002458 49 337 11.0 15.0 0.00 0.09 0.00 76 1004.8
20260906000456 50 334 12.0 15.0 0.00 0.09 0.00 79 1004.5
20260905234457 50 337 10.0 14.0 0.00 0.09 0.00 81 1004.4
20260905232456 50 332 8.0 11.0 0.00 0.09 0.00 82 1004.4
20260905230457 49 338 9.0 11.0 0.00 0.09 0.00 82 1004.2
20260905224456 49 343 9.0 11.0 0.00 0.09 0.00 86 1004.1
20260905222457 45 333 9.0 12.0 0.00 0.09 0.00 98 1004.0
20260905220458 45 344 7.0 9.0 0.00 0.09 0.00 97 1003.9
20260905214457 46 346 4.0 7.0 0.00 0.09 0.00 95 1003.8
20260905212127 47 344 6.0 9.0 0.00 0.09 0.00 92 1003.6
20260905210126 48 355 7.0 10.0 0.00 0.09 0.00 88 1003.6
20260905204456 50 340 9.0 15.0 0.00 0.09 0.09 85 1003.4
20260905202457 50 349 9.0 11.0 0.00 0.09 0.09 83 1003.1
20260905200458 50 353 9.0 13.0 0.00 0.09 0.09 84 1003.0
20260905194454 51 353 9.0 14.0 0.00 0.09 0.09 83 1002.7
20260905190455 51 345 9.0 14.0 0.00 0.09 0.09 82 1002.8
20260905184457 50 355 10.0 19.0 0.00 0.09 0.09 83 1002.6
20260905182456 50 357 9.0 15.0 0.00 0.09 0.09 82 1002.4
20260905180454 51 14 10.0 16.0 0.00 0.09 0.09 81 1002.2
20260905174453 51 17 10.0 18.0 0.00 0.09 0.09 82 1001.9
20260905172454 51 17 9.0 15.0 0.00 0.09 0.09 81 1001.8
20260905164457 52 6 11.0 17.0 0.00 0.09 0.09 77 1001.4
20260905162127 52 12 11.0 17.0 0.00 0.09 0.09 77 1001.2
20260905160455 53 18 14.0 24.0 0.00 0.09 0.09 74 1000.9
20260905154454 54 5 14.0 26.0 0.00 0.09 0.09 71 1000.8
20260905152456 54 13 15.0 26.0 0.00 0.09 0.09 75 1000.8
20260905150125 53 8 13.0 25.0 0.01 0.09 0.09 78 1000.5
20260905144455 53 10 13.0 22.0 0.01 0.09 0.09 80 1000.5
20260905140126 53 11 10.0 15.0 0.00 0.08 0.08 91 999.9
20260905130128 56 21 11.0 21.0 0.01 0.08 0.07 83 999.4
20260905124454 54 5 16.0 26.0 0.01 0.08 0.07 83 999.2
20260905122454 54 8 13.0 23.0 0.01 0.08 0.07 85 999.1
20260905120455 56 14 11.0 21.0 0.01 0.08 0.07 82 998.8
20260905114455 54 14 14.0 20.0 0.01 0.07 0.07 92 998.7
20260905112456 54 10 14.0 22.0 0.01 0.07 0.07 85 998.6
20260905110454 54 356 14.0 24.0 0.01 0.07 0.06 87 998.1
20260905104456 54 359 14.0 26.0 0.01 0.07 0.06 86 998.0
20260905102455 55 8 14.0 23.0 0.01 0.07 0.06 88 997.7
20260905100454 53 8 14.0 25.0 0.01 0.07 0.06 95 997.5
20260905094454 53 356 15.0 28.0 0.00 0.06 0.05 94 997.3
20260905092455 56 13 14.0 26.0 0.00 0.06 0.05 83 996.9